Home   Weather   Montpelier   Past weeks

Flag for USA Past Weather in Montpelier, Vermont, USA — Yesterday and Last 2 Weeks

Now
54 °F

Clear.


Feels Like: 54 °F
Forecast: 50 / 69 °F
Wind: 3 mph from South

Location: Knapp State Airport

Current Time: Sep 26, 2016 at 10:05:47 PM

Latest Report: Sep 26, 2016 at 8:51 PM


Visibility: 10 mi

Pressure: 30.04 "Hg

Humidity: 64%

Dew Point: 42 °F

Location of MontpelierLocation

Past Weather in Montpelier — Graph

°F

Montpelier Temperature Yesterday

Maximum temperature yesterday: 56 °F (at 3:51 PM)
Minimum temperature yesterday: 36 °F (at 11:51 PM)
Average temperature yesterday: 46 °F

High & Low Weather Summary for the Past Weeks

 TemperatureHumidityPressure
High79 °F (Sep 20, 2:51 PM)100% (Sep 12, 7:04 AM)30.39 "Hg (Sep 12, 7:04 AM)
Low32 °F (Sep 26, 6:51 AM)33% (Sep 21, 1:51 PM)29.97 "Hg (Sep 18, 5:51 AM)
Average58 °F76%30.16 "Hg
* Reported Sep 11 8:51 PM — Sep 26 8:51 PM, Montpelier, Weather by CustomWeather, © 2016

Note: Actual official high and low records may vary slightly from our data, if they occured in-between our weather recording intervals... More about our weather records

Advertising

Montpelier Weather History for the Previous 24 Hours

Scroll right to see more
 ConditionsComfort  
Time TempWeatherWind HumidityBarometerVisibility
8:51 PM
Mon, Sep 26
54 °FClear.3 mph64%30.04 "Hg10 mi
7:51 PM55 °FClear.6 mph62%30.04 "Hg10 mi
6:51 PM55 °FClear.6 mph64%30.05 "Hg10 mi
5:51 PM58 °FSunny.7 mph58%30.06 "Hg10 mi
4:51 PM60 °FSunny.7 mph49%30.07 "Hg10 mi
3:51 PM62 °FSunny.12 mph44%30.10 "Hg10 mi
2:51 PM62 °FSunny.8 mph43%30.13 "Hg10 mi
1:51 PM60 °FSunny.10 mph44%30.15 "Hg10 mi
12:51 PM58 °FSunny.12 mph43%30.18 "Hg10 mi
11:51 AM56 °FSunny.8 mph53%30.20 "Hg10 mi
10:51 AM45 °FSunny.3 mph90%30.24 "Hg10 mi
10:00 AM40 °FPartly sunny.No wind97%30.22 "Hg9 mi
8:51 AM36 °FFog.No wind97%30.27 "Hg0 mi
7:51 AM34 °FFog.No wind100%30.27 "Hg0 mi
6:51 AM32 °FFog.3 mph100%30.28 "Hg0 mi
5:51 AM34 °FFog.No wind100%30.27 "Hg0 mi
4:51 AM34 °FFog.No wind97%30.26 "Hg0 mi
3:51 AM34 °FFog.No wind97%30.26 "Hg0 mi
2:51 AM33 °FLow clouds.No wind100%30.26 "Hg10 mi
2:00 AM36 °FFog.No wind97%30.25 "Hg1 mi
12:51 AM36 °FClear.No wind89%30.27 "Hg10 mi
11:51 PM
Sun, Sep 25
36 °FClear.No wind92%30.27 "Hg10 mi
10:51 PM37 °FClear.No wind89%30.26 "Hg10 mi
Weather by CustomWeather, © 2016

See weather overviewHow to use our weather pages